Terminal Aerodrome Forecast
Issued by NWS

Home | Current Version | Previous Version | Text Only | Print | Product List | Glossary On
Versions: 1 2 3 4 5 6 7 8 9 10 11 12 13
000
FTUS42 TJSJ 290538
TAFJBQ
TAF
TJBQ 290538Z 2906/3006 08009KT P6SM FEW030
     FM291400 07016KT P6SM SCT025
     FM292300 09008KT P6SM SCT025=

USA.gov is the U.S. government's official web portal to all federal, state and local government web resources and services.